Weather Roundup
Issued by NWS

Home | Current Version | Previous Version | Graphics & Text | Print | Product List | Glossary Off
Versions: 1 2 3 4 5 6 7 8 9 10 11 12 13 14 15 16 17 18 19 20 21 22 23 24 25 26 27 28 29 30 31 32 33 34 35 36 37 38 39 40 41 42 43 44 45 46 47 48 49 50

000
NZUS93 KARX 201410
HRRWXR

CURRENT HOURLY OBSERVATIONS ACROSS
MUCH OF THE UPPER MISSISSIPPI VALLEY
NATIONAL WEATHER SERVICE LA CROSSE WI
800 AM CST MON FEB 20 2017


...SOUTHEAST MINNESOTA...


CITY           SKY/WX    TMP DP  RH WIND       PRES   REMARKS
ROCHESTER      CLOUDY    47  45  93 S15       29.89S FOG
ROCHESTER/MAYO FAIR      49  47  90 SE12      29.88F
WINONA         MOCLDY    48  43  81 SE7       29.91F
AUSTIN         CLOUDY    48  45  87 SE10      29.86S FOG
ALBERT LEA     CLOUDY    48  46  93 SE10      29.83F FOG
DODGE CENTER   CLOUDY    45  43  93 SE12      29.86F FOG
PRESTON        CLOUDY    47  44  89 SE9       29.91R FOG
OWATONNA       CLOUDY    50  45  81 SE16G26   29.82F
FARIBAULT      CLOUDY    52  46  82 SE13      29.81F
$$

...ELSEWHERE IN MINNESOTA...


CITY           SKY/WX    TMP DP  RH WIND       PRES   REMARKS
MINNEAPOLIS    CLOUDY    49  43  80 E7        29.81F
INTNL FALLS    CLOUDY    42  35  76 SE7       29.77R
DULUTH         CLOUDY    40  34  79 SE17      29.86S WCI  31
RED WING       CLOUDY    52  45  76 SE9       29.87R
REDWOOD FALLS  MOCLDY    49  44  83 SE14      29.72S
MANKATO          N/A     50  46  86 SE18      29.78F
WORTHINGTON    LGT RAIN  52  50  93 S15       29.74R FOG
FAIRMONT       LGT RAIN  51  48  89 S18G28    29.76F
$$

...SOUTHWEST WISCONSIN...


CITY           SKY/WX    TMP DP  RH WIND       PRES   REMARKS
LA CROSSE      CLOUDY    54  46  74 SE10      29.93F
PRAIRIE DU CHI CLOUDY    49  43  82 E9G16     29.97S HAZE
BOSCOBEL       CLOUDY    50  44  80 VRB3      29.99F
LONE ROCK      CLOUDY    48  43  82 E13       30.01F HAZE
PLATTEVILLE    PTSUNNY   44  44 100 E15       30.00F
FORT MC COY    CLOUDY    51  46  84 E9        29.97F
CAMP DOUGLAS   CLOUDY    44  39  81 SE10      30.00F
MAUSTON-NEW LI CLOUDY    44  38  80 SE8       30.01F
VIROQUA        FAIR      47  45  90 SE16      29.95F
WIS DELLS      PTSUNNY   48  43  80 SE9       30.03F
$$

...ELSEWHERE IN WISCONSIN...


CITY           SKY/WX    TMP DP  RH WIND       PRES   REMARKS
MILWAUKEE      CLOUDY    43  36  76 SE8       30.14S
MADISON        CLOUDY    45  41  86 SE6       30.06S FOG
GREEN BAY      MOSUNNY   42  34  73 SE7       30.13F
EAU CLAIRE     CLOUDY    45  38  76 E10       29.90F
BLACK RVR FLS  FAIR      47  39  76 E5        29.96F
MEDFORD        CLOUDY    40  33  76 SE10G20   30.00F WCI  33
WAUSAU         CLOUDY    38  30  73 SE10      30.05S WCI  31
WIS RAPIDS     CLOUDY    42  35  76 E7        30.04F
MARSHFIELD     CLOUDY    40  33  76 E10       30.00F WCI  33
RICE LAKE      CLOUDY    44  36  74 SE20      29.91F
$$

...NORTHEAST IOWA...


CITY           SKY/WX    TMP DP  RH WIND       PRES   REMARKS
WATERLOO       CLOUDY    52  48  86 SE12      29.89S FOG
DUBUQUE        FOG       48  47  96 SE18      29.98F VSB 1
DECORAH        CLOUDY    48  46  93 SE13G20   29.92R FOG
MASON CITY     LGT RAIN  47  45  93 SE12      29.85F FOG
CHARLES CITY   CLOUDY    48  48 100 SE15      29.89F FOG
OELWEIN        CLOUDY    48  46  93 SE14      29.93R FOG
$$

...ELSEWHERE IN IOWA...


CITY           SKY/WX    TMP DP  RH WIND       PRES   REMARKS
DES MOINES     LGT RAIN  59  55  87 S14       29.84S
IOWA CITY      CLOUDY    51  49  92 SE8       29.97S FOG
FORT DODGE     CLOUDY    52  46  82 SE9       29.80F
MARSHALLTOWN   LGT RAIN  52  50  93 S12       29.86S
CEDAR RAPIDS   CLOUDY    51  51 100 SE9       29.93S FOG
$$

...NORTHERN ILLINOIS...


CITY           SKY/WX    TMP DP  RH WIND       PRES   REMARKS
CHICAGO-OHARE  PTSUNNY   49  45  86 SE8       30.13S FOG
CHICAGO-MIDWAY PTSUNNY   49  44  83 SE8       30.14S FOG
MOLINE         FOG       52  49  89 SE9       30.01R VSB 1
ROCKFORD       CLOUDY    47  44  90 SE9       30.10R FOG
PEORIA         CLOUDY    49  49 100 SE8       30.07S FOG
$$

NOTE: "FAIR" INDICATES FEW OR NO CLOUDS BELOW 12,000 FEET WITH NO
SIGNIFICANT WEATHER AND/OR OBSTRUCTIONS TO VISIBILITY. WIND
SPEEDS ARE IN MILES-PER-HOUR.




USA.gov is the U.S. government's official web portal to all federal, state and local government web resources and services.